TimeCST,TemperatureF,Dew PointF,Humidity,Sea Level PressureIn,VisibilityMPH,Wind Direction,Wind SpeedMPH,Gust SpeedMPH,PrecipitationIn,Events,Conditions,WindDirDegrees,DateUTC
12:53 AM,72.0,70.0,93,29.66,6.0,South,16.1,24.2,0.01,Rain,Light Rain,170,2013-12-21 06:53:00
1:53 AM,72.0,69.1,91,29.64,9.0,South,18.4,32.2,0.01,Rain,Light Rain,170,2013-12-21 07:53:00
2:53 AM,72.0,69.1,91,29.66,2.5,SSW,17.3,24.2,0.06,Rain-Thunderstorm,Heavy Thunderstorms and Rain,200,2013-12-21 08:53:00
3:02 AM,71.6,69.8,94,29.67,3.0,SSW,16.1,28.8,0.03,Rain,Rain,200,2013-12-21 09:02:00
3:19 AM,60.8,60.8,100,29.68,5.0,WNW,11.5,24.2,0.04,Rain,Light Rain,300,2013-12-21 09:19:00
3:25 AM,51.8,51.8,100,29.68,6.0,WNW,19.6,26.5,0.05,Rain,Light Rain,300,2013-12-21 09:25:00
3:41 AM,48.2,46.4,93,29.69,6.0,NW,13.8,23.0,0.06,Rain-Thunderstorm,Rain,310,2013-12-21 09:41:00
3:53 AM,46.9,46.9,100,29.68,4.0,Variable,6.9,-,0.10,Rain-Thunderstorm,Light Rain,0,2013-12-21 09:53:00
4:25 AM,46.4,46.4,100,29.69,10.0,WNW,9.2,19.6,0.05,Rain,Light Rain,290,2013-12-21 10:25:00
4:40 AM,46.4,44.6,93,29.67,6.0,NNW,8.1,18.4,0.07,Rain-Thunderstorm,Light Thunderstorms and Rain,330,2013-12-21 10:40:00
4:53 AM,46.0,45.0,96,29.67,4.0,NNW,9.2,-,0.11,Rain-Thunderstorm,Rain,330,2013-12-21 10:53:00
5:01 AM,44.6,44.6,100,29.68,5.0,NNW,8.1,-,0.00,Rain,Light Rain,330,2013-12-21 11:01:00
5:17 AM,46.4,44.6,93,29.66,9.0,North,6.9,-,0.01,Rain-Thunderstorm,Light Rain,360,2013-12-21 11:17:00
5:32 AM,46.4,46.4,100,29.65,10.0,NNE,8.1,-,0.01,Rain,Light Rain,20,2013-12-21 11:32:00
5:49 AM,48.2,46.4,93,29.65,10.0,East,3.5,-,0.01,Rain-Thunderstorm,Light Thunderstorms and Rain,80,2013-12-21 11:49:00
5:53 AM,48.0,46.9,96,29.65,6.0,ENE,3.5,-,0.04,Rain-Thunderstorm,Light Thunderstorms and Rain,70,2013-12-21 11:53:00
6:30 AM,48.2,46.4,93,29.61,9.0,NNW,3.5,-,0.07,Rain,Light Rain,330,2013-12-21 12:30:00
6:53 AM,48.9,48.0,97,29.62,10.0,Calm,Calm,-,0.07,Rain,Light Rain,0,2013-12-21 12:53:00
7:53 AM,48.9,48.0,97,29.60,9.0,North,3.5,-,0.00,,Overcast,360,2013-12-21 13:53:00
8:53 AM,54.0,53.1,97,29.57,1.0,SE,10.4,-,0.00,Rain,Light Rain,130,2013-12-21 14:53:00
9:07 AM,60.8,59.0,94,29.56,4.0,SSE,16.1,-,0.00,,Mostly Cloudy,150,2013-12-21 15:07:00
9:14 AM,62.6,60.8,94,29.56,4.0,SSE,17.3,-,0.00,,Overcast,150,2013-12-21 15:14:00
10:53 AM,46.9,46.0,97,29.63,3.0,WNW,9.2,-,N/A,,Mist,290,2013-12-21 16:53:00
11:18 AM,48.2,46.4,93,29.62,10.0,WNW,8.1,-,N/A,,Overcast,300,2013-12-21 17:18:00
11:53 AM,46.9,46.0,97,29.67,6.0,West,9.2,-,0.00,Rain,Light Rain,280,2013-12-21 17:53:00
12:08 PM,48.2,46.4,93,29.66,4.0,North,-9999.0,-,0.02,Rain,Rain,0,2013-12-21 18:08:00
12:53 PM,48.9,48.0,97,29.63,10.0,North,-9999.0,-,0.06,Rain,Light Rain,0,2013-12-21 18:53:00
1:07 PM,48.2,48.2,100,29.67,9.0,North,-9999.0,-,0.00,Rain,Light Rain,0,2013-12-21 19:07:00
1:14 PM,48.2,48.2,100,29.65,1.5,North,-9999.0,-,0.09,Rain-Thunderstorm,Heavy Rain,0,2013-12-21 19:14:00
1:23 PM,48.2,48.2,100,29.61,2.0,North,-9999.0,-,0.10,Rain-Thunderstorm,Light Rain,0,2013-12-21 19:23:00
1:27 PM,48.2,48.2,100,29.61,9.0,North,-9999.0,-,0.10,Rain-Thunderstorm,Light Rain,0,2013-12-21 19:27:00
1:35 PM,48.2,48.2,100,29.63,10.0,North,-9999.0,-,0.10,,Mostly Cloudy,0,2013-12-21 19:35:00
1:53 PM,50.0,48.0,93,29.64,10.0,North,-9999.0,-,0.10,,Mostly Cloudy,0,2013-12-21 19:53:00
2:53 PM,50.0,48.9,96,29.62,10.0,North,-9999.0,-,N/A,,Mostly Cloudy,0,2013-12-21 20:53:00
3:53 PM,52.0,50.0,93,29.63,10.0,North,-9999.0,-,N/A,,Mostly Cloudy,0,2013-12-21 21:53:00
4:53 PM,52.0,51.1,97,29.65,9.0,North,-9999.0,-,N/A,,Overcast,0,2013-12-21 22:53:00
5:31 PM,51.8,51.8,100,29.67,1.8,North,-9999.0,-,N/A,,Overcast,0,2013-12-21 23:31:00
5:53 PM,52.0,51.1,97,29.68,0.5,North,-9999.0,-,N/A,Fog,Fog,0,2013-12-21 23:53:00
6:10 PM,51.8,51.8,100,29.69,0.2,North,-9999.0,-,N/A,Fog,Fog,0,2013-12-22 00:10:00
6:53 PM,51.1,50.0,96,29.71,0.2,North,-9999.0,-,N/A,Fog,Fog,0,2013-12-22 00:53:00
7:53 PM,50.0,50.0,100,29.75,0.2,North,-9999.0,-,N/A,Fog,Fog,0,2013-12-22 01:53:00
8:40 PM,50.0,50.0,100,29.75,0.2,North,-9999.0,-,N/A,Fog,Fog,0,2013-12-22 02:40:00
8:51 PM,50.0,50.0,100,29.75,0.2,North,-9999.0,-,N/A,Fog,Fog,0,2013-12-22 02:51:00
8:53 PM,50.0,50.0,100,29.75,0.2,North,-9999.0,-,N/A,Fog,Fog,0,2013-12-22 02:53:00
9:53 PM,50.0,50.0,100,29.80,0.2,North,-9999.0,-,N/A,Fog,Fog,0,2013-12-22 03:53:00
10:53 PM,50.0,50.0,100,29.83,0.2,North,-9999.0,-,N/A,Fog,Fog,0,2013-12-22 04:53:00
11:53 PM,50.0,50.0,100,29.85,0.2,North,-9999.0,-,N/A,Fog,Fog,0,2013-12-22 05:53:00